Weather in Rublyovo

Russia / Moscow Oblast     55°47′09″N   37°21′21″E
В апреле 2022 года жителям России запретили посещать сайт meteo.paraplan.net по решению Генеральной прокуратуры. Аудитория сайта уменьшилась в 10 раз. Владельцы сайта не видят смысла в поддержке погодного сервера в таких условиях. Сайт будет закрыт в октябре.
temp.,
°C
wind,
m/s
gust,
m/s
humid.,
%
clouds,
%
prec.,
mm/h
press.,
hPa
HPBL,
m
30 september, fri
fri3000:00+9s2786100 0.0 1013189
03:00+8sse3887100 0.0 1014203
06:00+8sse3108998 0.0 1014265
09:00+11s31078100 0.0 1014352
12:00+15s4771100 0.0 1014588
15:00+16ssw3771100 0.2 1014991
18:00+14s368859 0.1 1015268
21:00+13ssw2794100 0.3 1016324
1 october, sat
sat100:00+13w1396100 0.1 1016186
03:00+12nne1392100 0.1 1017167
06:00+12ne2393100 0.1 1016172
09:00+12ne1296100 0.3 1015126
12:00+13se2392100 0.0 1014285
15:00+15se3581100 0.0 1012556
18:00+14ese3988100 0.2 1009311
21:00+14s31093100 1.1 1006395
2 october, sun
sun200:00+12sw51190100 0.5 1006656
03:00+10sw61177100 0.7 10061138
06:00+9sw61187100 0.1 1006870
09:00+9wsw51187100 0.1 1007699
12:00+9wsw4885100 0.0 1008823
15:00+9wsw3582100 0.1 1008716
18:00+9w2383100 0.0 1008341
21:00+8ne238999 0.0 1007115
3 october, mon
mon300:00+8ne3788100 0.3 1005381
03:00+8ne61393100 5.8 1001582
06:00+9ne41196100 8.1 997494
09:00+13ese51498100 11.8 994741
12:00+14se61496100 6.3 993875
15:00+13ssw5996100 10.4 993472
18:00+9ssw5889100 0.1 997859
21:00+7ssw5987100 0.3 10001113
4 october, tue
tue400:00+7ssw5987100 0.6 10021198
03:00+6ssw5990100 3.4 10041096
06:00+7ssw6108394 0.1 1006870
09:00+8s5128414 0.1 1008614
12:00+11ssw61072100 0.1 10101406
15:00+11ssw5107464 0.8 10111173
18:00+10s4108296 0.6 1013972
21:00+9s41088100 0.7 1014639